Regional Weather Roundup
Issued by NWS

Home | Current Version | Previous Version | Text Only | Print | Product List | Glossary Off
Versions: 1 2 3 4 5 6 7 8 9 10 11 12 13 14 15 16 17 18 19 20 21 22 23 24 25 26 27 28 29 30 31 32 33 34 35 36 37 38 39 40 41 42 43 44 45 46 47 48 49 50

700
ASUS43 KFSD 231710
RWRSD

WEATHER ROUNDUP FOR SOUTH DAKOTA
NATIONAL WEATHER SERVICE SIOUX FALLS SD
1200 PM CDT FRI JUN 23 2017

NOTE: "FAIR" INDICATES FEW OR NO CLOUDS BELOW 12,000 FEET WITH NO
SIGNIFICANT WEATHER AND/OR OBSTRUCTIONS TO VISIBILITY.


SDZ001>005-009-010-012>017-231800-
NORTHWEST AND NORTH CENTRAL SOUTH DAKOTA

CITY           SKY/WX    TMP DP  RH WIND       PRES   REMARKS
BUFFALO          N/A     61  31  32 NW31G43   30.11S
FAITH            N/A     62  35  36 N25G35    30.14S
MOBRIDGE       PTSUNNY   64  35  34 NW24G37   30.06R
$$

SDZ012>016-024>037-041>051-057-063-072>074-231800-
SOUTHWEST AND SOUTH CENTRAL SOUTH DAKOTA

CITY           SKY/WX    TMP DP  RH WIND       PRES   REMARKS
RAPID CTY ARPT SUNNY     63  37  38 N28G33    30.19F
PIERRE         SUNNY     64  39  39 NW28G41   30.09S
CUSTER         SUNNY     56  30  37 E5        30.23R
ELLSWORTH AFB  PTSUNNY   60  36  39 NW24G30   30.19S
PHILIP         PTSUNNY   66  39  37 NW24G36   30.15S
PINE RIDGE     PTSUNNY   62  42  47 NW9       30.21R
SPEARFISH      FAIR      57  36  44 NW18      30.23S
WINNER         CLOUDY    64  45  49 NW23G32   30.11S
$$

SDZ004>011-016>023-039-040-231800-
NORTHEAST SOUTH DAKOTA

CITY           SKY/WX    TMP DP  RH WIND       PRES   REMARKS
ABERDEEN       CLOUDY    61  45  55 NW25G32   30.01R
WATERTOWN      CLOUDY    59  49  69 NW23G30   29.98R
BROOKINGS      CLOUDY    61  49  64 NW22G31   29.99R
SISSETON         N/A     62  49  62 NW25G31   29.93R
$$

SDZ017-020-022-023-036>040-048>070-231800-
SOUTHEAST SOUTH DAKOTA

CITY           SKY/WX    TMP DP  RH WIND       PRES   REMARKS
SIOUX FALLS    CLOUDY    63  51  65 NW26G36   30.00R
HURON          CLOUDY    63  48  58 NW28      30.02R
CHAMBERLAIN    CLOUDY    64  48  56 W22G28    30.08S
MITCHELL       CLOUDY    66  48  52 NW23G29   30.03S
YANKTON        PTSUNNY   65  49  56 NW23G31   30.03S
$$

ABBREVIATIONS USED IN REMARKS
   TC - TEMPERATURE IN CELSIUS
  WCI - WIND CHILL INDEX
   HX - HEAT INDEX
  VSB - VISIBILITY





USA.gov is the U.S. government's official web portal to all federal, state and local government web resources and services.